| time (UTC) | temp F | wind direction | speed MPH | gust MPH | rain 1hr in | rain 24hr in | rain mn in | humidity % | barometer mb |
| 20260905193026 | 76 | 292 | 0.0 | 1.0 | 0.00 | 0.00 | 0.00 | 60 | 1012.7 |
| 20260905191525 | 76 | 292 | 0.0 | 1.0 | 0.00 | 0.00 | 0.00 | 60 | 1012.9 |
| 20260905190025 | 75 | 273 | 0.0 | 1.0 | 0.00 | 0.00 | 0.00 | 62 | 1013.0 |
| 20260905184529 | 75 | 17 | 0.0 | 1.0 | 0.00 | 0.00 | 0.00 | 63 | 1013.0 |
| 20260905183023 | 74 | 5 | 0.0 | 1.0 | 0.00 | 0.00 | 0.00 | 62 | 1012.9 |
| 20260905181521 | 74 | 289 | 0.0 | 1.0 | 0.00 | 0.00 | 0.00 | 63 | 1013.0 |
| 20260905180020 | 74 | 195 | 0.0 | 0.0 | 0.00 | 0.00 | 0.00 | 63 | 1012.9 |
| 20260905174524 | 74 | 271 | 0.0 | 0.0 | 0.00 | 0.00 | 0.00 | 61 | 1013.0 |
| 20260905173017 | 74 | 269 | 0.0 | 0.0 | 0.00 | 0.00 | 0.00 | 63 | 1013.0 |
| 20260905171514 | 73 | 299 | 0.0 | 1.0 | 0.00 | 0.00 | 0.00 | 67 | 1013.3 |
| 20260905170012 | 72 | 303 | 0.0 | 0.0 | 0.00 | 0.00 | 0.00 | 67 | 1013.4 |
| 20260905164518 | 72 | 294 | 0.0 | 1.0 | 0.00 | 0.00 | 0.00 | 68 | 1013.4 |
| 20260905163013 | 72 | 273 | 0.0 | 1.0 | 0.00 | 0.00 | 0.00 | 66 | 1013.4 |
| 20260905161510 | 72 | 254 | 0.0 | 1.0 | 0.00 | 0.00 | 0.00 | 68 | 1013.3 |
| 20260905160009 | 71 | 292 | 0.0 | 1.0 | 0.00 | 0.00 | 0.00 | 68 | 1013.4 |
| 20260905154510 | 71 | 5 | 0.0 | 1.0 | 0.00 | 0.00 | 0.00 | 71 | 1013.5 |
| 20260905153005 | 70 | 346 | 0.0 | 1.0 | 0.00 | 0.00 | 0.00 | 70 | 1013.5 |
| 20260905151513 | 70 | 282 | 0.0 | 1.0 | 0.00 | 0.00 | 0.00 | 70 | 1013.6 |
| 20260905150006 | 70 | 42 | 0.0 | 1.0 | 0.00 | 0.00 | 0.00 | 72 | 1013.7 |
| 20260905144506 | 70 | 32 | 0.0 | 1.0 | 0.00 | 0.00 | 0.00 | 74 | 1013.6 |
| 20260905143103 | 69 | 295 | 0.0 | 1.0 | 0.00 | 0.00 | 0.00 | 77 | 1013.6 |
| 20260905141554 | 67 | 241 | 0.0 | 1.0 | 0.00 | 0.00 | 0.00 | 82 | 1013.7 |
| 20260905140055 | 66 | 259 | 0.0 | 1.0 | 0.00 | 0.00 | 0.00 | 86 | 1013.7 |
| 20260905134556 | 65 | 199 | 0.0 | 0.0 | 0.00 | 0.00 | 0.00 | 91 | 1013.6 |
| 20260905133056 | 63 | 175 | 0.0 | 0.0 | 0.00 | 0.00 | 0.00 | 91 | 1013.6 |
| 20260905131554 | 63 | 175 | 0.0 | 0.0 | 0.00 | 0.00 | 0.00 | 92 | 1013.7 |
| 20260905130050 | 62 | 175 | 0.0 | 0.0 | 0.00 | 0.00 | 0.00 | 92 | 1013.7 |
| 20260905124550 | 61 | 175 | 0.0 | 0.0 | 0.00 | 0.00 | 0.00 | 92 | 1014.0 |
| 20260905123059 | 60 | 175 | 0.0 | 0.0 | 0.00 | 0.00 | 0.00 | 92 | 1014.3 |
| 20260905121553 | 59 | 175 | 0.0 | 0.0 | 0.00 | 0.00 | 0.00 | 91 | 1014.3 |
| 20260905120046 | 59 | 175 | 0.0 | 0.0 | 0.00 | 0.00 | 0.00 | 91 | 1014.1 |
| 20260905114544 | 58 | 175 | 0.0 | 0.0 | 0.00 | 0.00 | 0.00 | 91 | 1013.6 |
| 20260905113042 | 57 | 175 | 0.0 | 0.0 | 0.00 | 0.00 | 0.00 | 91 | 1013.5 |
| 20260905111542 | 57 | 175 | 0.0 | 0.0 | 0.00 | 0.00 | 0.00 | 90 | 1013.4 |
| 20260905110041 | 57 | 175 | 0.0 | 0.0 | 0.00 | 0.00 | 0.00 | 90 | 1013.4 |
| 20260905104544 | 57 | 175 | 0.0 | 0.0 | 0.00 | 0.00 | 0.00 | 90 | 1013.1 |
| 20260905103039 | 57 | 175 | 0.0 | 0.0 | 0.00 | 0.00 | 0.00 | 90 | 1012.8 |
| 20260905101547 | 57 | 175 | 0.0 | 0.0 | 0.00 | 0.00 | 0.00 | 90 | 1012.6 |
| 20260905100111 | 57 | 175 | 0.0 | 0.0 | 0.00 | 0.00 | 0.00 | 90 | 1012.5 |
| 20260905094546 | 57 | 175 | 0.0 | 0.0 | 0.00 | 0.00 | 0.00 | 90 | 1012.5 |
| 20260905093035 | 57 | 175 | 0.0 | 0.0 | 0.00 | 0.00 | 0.00 | 90 | 1012.4 |
| 20260905091540 | 58 | 175 | 0.0 | 0.0 | 0.00 | 0.00 | 0.00 | 90 | 1012.3 |
| 20260905090032 | 58 | 175 | 0.0 | 0.0 | 0.00 | 0.00 | 0.00 | 90 | 1012.4 |
| 20260905084535 | 58 | 175 | 0.0 | 0.0 | 0.00 | 0.00 | 0.00 | 90 | 1012.4 |
| 20260905083031 | 58 | 175 | 0.0 | 0.0 | 0.00 | 0.00 | 0.00 | 90 | 1012.4 |
| 20260905080027 | 59 | 175 | 0.0 | 0.0 | 0.00 | 0.00 | 0.00 | 90 | 1012.5 |
| 20260905074528 | 59 | 175 | 0.0 | 0.0 | 0.00 | 0.00 | 0.00 | 89 | 1012.5 |
| 20260905073023 | 60 | 175 | 0.0 | 0.0 | 0.00 | 0.00 | 0.00 | 89 | 1012.5 |
| 20260905071521 | 60 | 175 | 0.0 | 0.0 | 0.00 | 0.00 | 0.00 | 89 | 1012.6 |
| 20260905070020 | 60 | 175 | 0.0 | 0.0 | 0.00 | 0.00 | 0.00 | 89 | 1012.8 |
| 20260905064518 | 61 | 175 | 0.0 | 0.0 | 0.00 | 0.00 | 0.00 | 88 | 1012.9 |
| 20260905063015 | 61 | 175 | 0.0 | 0.0 | 0.00 | 0.00 | 0.00 | 87 | 1012.9 |
| 20260905061512 | 62 | 175 | 0.0 | 0.0 | 0.00 | 0.00 | 0.00 | 87 | 1013.0 |
| 20260905060009 | 63 | 175 | 0.0 | 0.0 | 0.00 | 0.00 | 0.00 | 86 | 1013.1 |
| 20260905054521 | 63 | 175 | 0.0 | 0.0 | 0.00 | 0.00 | 0.00 | 86 | 1013.2 |
| 20260905053006 | 64 | 175 | 0.0 | 0.0 | 0.00 | 0.00 | 0.00 | 86 | 1013.2 |
| 20260905051508 | 64 | 175 | 0.0 | 0.0 | 0.00 | 0.00 | 0.00 | 85 | 1013.3 |
| 20260905050001 | 64 | 175 | 0.0 | 0.0 | 0.00 | 0.00 | 0.00 | 85 | 1013.4 |
| 20260905044608 | 65 | 175 | 0.0 | 0.0 | 0.00 | 0.07 | 0.00 | 85 | 1013.4 |
| 20260905043103 | 66 | 175 | 0.0 | 0.0 | 0.00 | 0.07 | 0.00 | 85 | 1013.4 |
| 20260905041555 | 67 | 175 | 0.0 | 0.0 | 0.00 | 0.07 | 0.00 | 85 | 1013.4 |
| 20260905040105 | 67 | 175 | 0.0 | 0.0 | 0.00 | 0.07 | 0.00 | 85 | 1013.3 |
| 20260905034601 | 68 | 175 | 0.0 | 0.0 | 0.00 | 0.87 | 0.07 | 85 | 1013.2 |
| 20260905033052 | 68 | 175 | 0.0 | 0.0 | 0.00 | 0.87 | 0.07 | 85 | 1013.2 |
| 20260905031551 | 68 | 175 | 0.0 | 0.0 | 0.00 | 0.87 | 0.07 | 83 | 1013.0 |
| 20260905030050 | 69 | 175 | 0.0 | 0.0 | 0.00 | 0.87 | 0.07 | 83 | 1013.1 |
| 20260905024558 | 70 | 175 | 0.0 | 0.0 | 0.00 | 0.87 | 0.07 | 83 | 1013.0 |
| 20260905023050 | 70 | 175 | 0.0 | 0.0 | 0.00 | 0.87 | 0.07 | 83 | 1013.0 |
| 20260905021550 | 70 | 175 | 0.0 | 0.0 | 0.00 | 0.87 | 0.07 | 83 | 1013.2 |
| 20260905020054 | 70 | 175 | 0.0 | 0.0 | 0.00 | 0.87 | 0.07 | 82 | 1013.3 |
| 20260905014548 | 70 | 175 | 0.0 | 0.0 | 0.00 | 0.87 | 0.07 | 82 | 1013.3 |
| 20260905013049 | 71 | 175 | 0.0 | 0.0 | 0.00 | 0.87 | 0.07 | 81 | 1013.4 |
| 20260905011552 | 71 | 175 | 0.0 | 0.0 | 0.00 | 0.87 | 0.07 | 80 | 1013.3 |
| 20260905010146 | 71 | 175 | 0.0 | 0.0 | 0.00 | 0.87 | 0.07 | 79 | 1013.3 |
| 20260905004547 | 72 | 175 | 0.0 | 0.0 | 0.00 | 0.87 | 0.07 | 78 | 1013.1 |
| 20260905003047 | 72 | 175 | 0.0 | 0.0 | 0.00 | 0.87 | 0.07 | 77 | 1012.9 |
| 20260905001546 | 73 | 175 | 0.0 | 0.0 | 0.00 | 0.87 | 0.07 | 76 | 1012.9 |
| 20260905000046 | 74 | 175 | 0.0 | 0.0 | 0.00 | 0.87 | 0.07 | 75 | 1012.7 |
| 20260904234547 | 74 | 175 | 0.0 | 0.0 | 0.00 | 0.87 | 0.07 | 74 | 1012.7 |
| 20260904233045 | 75 | 175 | 0.0 | 0.0 | 0.00 | 0.87 | 0.07 | 72 | 1012.6 |
| 20260904231559 | 76 | 175 | 0.0 | 0.0 | 0.00 | 0.87 | 0.07 | 71 | 1012.6 |
| 20260904230044 | 77 | 175 | 0.0 | 2.0 | 0.00 | 0.87 | 0.07 | 69 | 1012.4 |
| 20260904224543 | 77 | 175 | 0.0 | 0.0 | 0.00 | 0.87 | 0.07 | 69 | 1012.4 |
| 20260904223043 | 77 | 175 | 0.0 | 2.0 | 0.00 | 0.87 | 0.07 | 67 | 1012.5 |
| 20260904221547 | 77 | 175 | 0.0 | 5.0 | 0.00 | 0.87 | 0.07 | 64 | 1012.4 |
| 20260904220042 | 78 | 271 | 3.0 | 6.0 | 0.00 | 0.87 | 0.07 | 60 | 1012.3 |
| 20260904214540 | 79 | 247 | 3.0 | 8.0 | 0.00 | 0.87 | 0.07 | 58 | 1012.2 |
| 20260904213044 | 79 | 293 | 3.0 | 7.0 | 0.00 | 0.87 | 0.07 | 59 | 1012.2 |
| 20260904211540 | 79 | 283 | 1.0 | 5.0 | 0.00 | 0.87 | 0.07 | 60 | 1012.4 |
| 20260904210039 | 80 | 280 | 4.0 | 8.0 | 0.00 | 0.87 | 0.07 | 57 | 1012.5 |
| 20260904204539 | 81 | 23 | 0.0 | 4.0 | 0.00 | 0.87 | 0.07 | 57 | 1012.6 |
| 20260904203050 | 80 | 50 | 1.0 | 8.0 | 0.00 | 0.87 | 0.07 | 57 | 1012.7 |
| 20260904201542 | 79 | 271 | 0.0 | 7.0 | 0.00 | 0.87 | 0.07 | 59 | 1012.7 |
| 20260904200055 | 80 | 277 | 1.0 | 6.0 | 0.00 | 0.87 | 0.07 | 57 | 1013.1 |
| 20260904194540 | 81 | 24 | 1.0 | 5.0 | 0.00 | 0.87 | 0.07 | 57 | 1013.1 |